Location: Korczew
(51.3586°N, 19.4491°E)
Time: 21:42:51
(UTC+00:00)

SL-8 Rocket - Pass Details

Date: 19 May 2025
Orbit: 955 x 990 km, 82.9° (Epoch: 16 June)

Event Time Altitude Azimuth Distance (km) Brightness Sun altitude
Rises 19:30:26 0° 351° (N) 3,658 8.0 -7.7°
Reaches altitude 10° 19:33:01 10° 356° (N) 2,704 7.2 -7.9°
Maximum altitude 19:39:06 57° 75° (ENE) 1,119 4.2 -8.6°
Enters shadow 19:45:05 10° 154° (SSE) 2,665 5.7 -9.2°
